Temp
9 9 9 9 9 9 8 8 8 8 8 8 8 8 8 8 8 7 7 7 7 7 7 7 7 7 7 6 6 6 6 6 6 6 6 6 6 6 6 6 6 6 7 7 7 7 7 7 7 7 7 7 7 7 6 6 6 6 6 6 6 6 5 5 5 5 5 5 4
9 9 9 9 9 8 8 8 8 8 8 8 8 8 7 7 7 7 7 7 7 7 7 7 7 6 6 6 6 6 6 6 6 6 5 5 5 5 6 6 6 6 6 6 6 6 6 7 7 7 7 6 6 6 6 6 6 6 6 6 6 5 5 5 5 5 5 5 4
9 9 9 8 8 8 8 8 8 8 8 7 7 7 7 7 7 7 7 7 7 7 6 6 6 6 6 6 6 6 6 6 5 5 5 5 5 5 5 5 5 5 5 6 6 6 6 6 6 6 6 6 6 6 6 6 6 6 6 6 6 5 5 5 5 5 5 5 4
9 8 8 8 8 8 8 8 7 7 7 7 7 7 7 7 7 7 6 6 6 6 6 6 6 6 6 6 6 6 6 5 5 5 5 5 5 5 5 5 5 5 5 5 5 5 6 6 6 6 6 6 6 6 6 6 6 6 6 6 5 5 5 5 5 5 5 4 4
8 8 8 8 8 7 7 7 7 7 7 7 7 7 7 6 6 6 6 6 6 6 6 6 6 6 6 5 5 5 5 5 5 5 5 5 5 5 5 5 5 5 5 5 5 5 5 5 5 5 6 6 6 6 6 6 6 6 6 5 5 5 5 5 5 5 4 4 4
8 8 8 7 7 7 7 7 7 7 7 7 6 6 6 6 6 6 6 6 6 5 5 5 5 5 5 5 5 5 4 4 4 4 4 4 4 4 4 4 4 4 4 4 5 5 5 5 5 5 5 5 5 5 5 5 5 5 5 5 5 5 5 5 5 4 4 4 4
7 7 7 7 7 7 7 7 7 6 6 6 6 6 6 6 6 5 5 5 5 5 5 5 4 4 4 4 4 4 4 4 4 4 4 4 4 4 4 4 4 4 4 4 4 4 4 4 5 5 5 5 5 5 5 5 5 5 5 5 5 5 5 4 4 4 4 4 4
7 7 7 7 7 7 7 6 6 6 6 6 6 6 6 5 5 5 5 5 4 4 4 4 4 4 4 4 3 3 3 3 3 3 3 3 3 3 3 3 3 3 3 3 4 4 4 4 4 4 4 4 4 4 4 5 5 5 4 4 4 4 4 4 4 4 4 4 4
7 7 7 7 7 6 6 6 6 6 6 6 5 5 5 5 5 4 4 4 4 4 4 4 3 3 3 3 3 3 3 3 3 3 2 2 2 2 3 3 3 3 3 3 3 3 3 3 4 4 4 4 4 4 4 4 4 4 4 4 4 4 4 4 4 4 4 4 3
7 7 7 6 6 6 6 6 6 6 5 5 5 5 5 4 4 4 4 4 4 3 3 3 3 3 3 3 3 2 2 2 2 2 2 2 2 2 2 2 2 2 2 2 3 3 3 3 3 3 3 3 3 4 4 4 4 4 4 4 4 4 4 4 4 4 3 3 3
7 6 6 6 6 6 6 6 5 5 5 5 5 4 4 4 4 4 4 3 3 3 3 3 3 3 2 2 2 2 2 2 2 2 2 2 2 2 2 2 2 2 2 2 2 2 2 2 2 2 3 3 3 3 3 4 4 4 4 4 4 4 4 3 3 3 3 3 3
6 6 6 6 6 6 5 5 5 5 5 4 4 4 4 4 4 3 3 3 3 3 3 3 2 2 2 2 2 2 2 2 2 2 2 2 1 1 1 1 1 2 2 2 2 2 2 2 2 2 2 2 2 2 3 3 3 3 3 3 3 3 3 3 3 3 3 3 3
6 6 6 6 5 5 5 5 5 4 4 4 4 4 4 3 3 3 3 3 3 3 2 2 2 2 2 2 2 2 2 1 1 1 1 1 1 1 1 1 1 1 1 1 1 1 1 2 2 2 2 2 2 2 2 2 2 2 3 3 3 3 3 3 3 3 3 3 2
6 6 6 5 5 5 5 4 4 4 4 4 4 3 3 3 3 3 3 2 2 2 2 2 2 2 2 1 1 1 1 1 1 1 1 1 1 1 1 1 1 1 1 1 1 1 1 1 1 1 2 2 2 2 2 2 2 2 2 2 2 2 3 3 3 3 2 2 2
6 5 5 5 5 5 4 4 4 4 3 3 3 3 3 3 3 2 2 2 2 2 2 1 1 1 1 1 1 1 1 0 0 0 0 0 0 0 0 0 0 0 0 0 1 1 1 1 1 1 1 1 1 2 2 2 2 2 2 2 2 2 2 2 2 2 2 2 2
5 5 5 5 4 4 4 4 3 3 3 3 3 3 3 2 2 2 2 2 1 1 1 1 1 1 1 0 0 0 0 -0 -0 -0 -0 -0 -0 -0 -0 -0 -0 -0 0 0 0 0 0 0 1 1 1 1 1 1 1 1 2 2 2 2 2 2 2 2 2 2 2 2 2
5 5 5 4 4 4 4 3 3 3 3 3 2 2 2 2 2 1 1 1 1 1 0 0 0 0 -0 -0 -0 -0 -1 -1 -1 -1 -1 -1 -1 -1 -1 -1 -0 -0 -0 -0 -0 -0 -0 -0 0 0 0 0 1 1 1 1 1 1 1 2 2 2 2 2 2 2 2 2 2
5 4 4 4 4 3 3 3 3 3 2 2 2 2 2 1 1 1 1 1 0 0 -0 -0 -0 -1 -1 -1 -1 -1 -1 -1 -1 -1 -1 -1 -1 -1 -1 -1 -1 -1 -1 -1 -1 -1 -1 -1 -0 -0 -0 -0 0 0 1 1 1 1 1 1 1 1 2 2 2 2 2 2 2
4 4 4 4 3 3 3 3 2 2 2 2 1 1 1 1 1 0 0 0 -0 -0 -1 -1 -1 -1 -1 -1 -1 -2 -2 -2 -2 -2 -2 -2 -2 -2 -2 -2 -2 -2 -1 -1 -1 -1 -1 -1 -1 -1 -1 -1 -0 -0 0 0 0 1 1 1 1 1 1 2 2 2 2 2 2
4 4 3 3 3 3 2 2 2 2 1 1 1 1 1 0 0 -0 -0 -0 -1 -1 -1 -1 -1 -2 -2 -2 -2 -2 -2 -2 -2 -2 -2 -2 -2 -2 -2 -2 -2 -2 -2 -2 -2 -2 -2 -2 -2 -1 -1 -1 -1 -1 -0 -0 0 0 1 1 1 1 1 1 2 2 2 2 2
4 3 3 3 2 2 2 2 1 1 1 1 0 0 0 -0 -0 -1 -1 -1 -1 -1 -2 -2 -2 -2 -2 -2 -2 -2 -2 -2 -2 -3 -3 -3 -3 -3 -3 -3 -3 -3 -3 -3 -3 -2 -2 -2 -2 -2 -2 -2 -2 -1 -1 -1 -1 -0 0 0 1 1 1 1 1 2 2 2 2
3 3 3 2 2 2 1 1 1 1 0 0 -0 -0 -0 -1 -1 -1 -1 -1 -2 -2 -2 -2 -2 -2 -3 -3 -3 -3 -3 -3 -3 -3 -3 -3 -3 -3 -3 -3 -3 -3 -3 -3 -3 -3 -3 -3 -3 -3 -3 -2 -2 -2 -2 -2 -1 -1 -1 -0 0 0 1 1 1 1 1 2 2
3 3 2 2 2 1 1 1 0 0 -0 -0 -1 -1 -1 -1 -1 -1 -2 -2 -2 -2 -2 -3 -3 -3 -3 -3 -3 -3 -3 -3 -3 -3 -3 -4 -4 -4 -4 -4 -4 -4 -4 -4 -4 -3 -3 -3 -3 -3 -3 -3 -3 -3 -2 -2 -2 -2 -1 -1 -0 -0 0 1 1 1 1 1 1
2 2 2 1 1 1 1 0 0 -0 -1 -1 -1 -1 -1 -1 -2 -2 -2 -2 -2 -3 -3 -3 -3 -3 -3 -3 -3 -4 -4 -4 -4 -4 -4 -4 -4 -4 -4 -4 -4 -4 -4 -4 -4 -4 -4 -4 -3 -3 -3 -3 -3 -3 -2 -2 -2 -2 -2 -1 -1 -1 -0 0 0 1 1 1 1
2 2 1 1 1 1 0 -0 -0 -1 -1 -1 -1 -2 -2 -2 -2 -2 -2 -2 -3 -3 -3 -3 -3 -3 -4 -4 -4 -4 -4 -4 -4 -4 -4 -4 -4 -4 -4 -4 -4 -4 -4 -4 -4 -4 -4 -4 -4 -3 -3 -3 -3 -3 -3 -2 -2 -2 -2 -1 -1 -1 -1 -0 0 0 1 1 1
2 1 1 1 0 0 -0 -1 -1 -1 -1 -2 -2 -2 -2 -2 -2 -2 -3 -3 -3 -3 -3 -3 -4 -4 -4 -4 -4 -4 -4 -4 -4 -4 -4 -4 -4 -4 -4 -4 -4 -4 -4 -4 -4 -4 -4 -4 -4 -4 -3 -3 -3 -3 -3 -3 -2 -2 -2 -2 -1 -1 -1 -1 -0 0 0 0 1
1 1 1 0 0 -0 -1 -1 -1 -2 -2 -2 -2 -2 -2 -3 -3 -3 -3 -3 -3 -3 -4 -4 -4 -4 -4 -4 -4 -4 -4 -4 -4 -4 -4 -4 -4 -5 -5 -5 -5 -5 -5 -4 -4 -4 -4 -4 -4 -4 -4 -4 -4 -3 -3 -3 -3 -2 -2 -2 -2 -2 -1 -1 -1 -0 -0 0 0
1 1 0 -0 -0 -1 -1 -1 -2 -2 -2 -2 -2 -3 -3 -3 -3 -3 -3 -3 -4 -4 -4 -4 -4 -4 -4 -4 -4 -4 -4 -4 -4 -5 -5 -5 -5 -5 -5 -5 -5 -5 -5 -5 -5 -5 -4 -4 -4 -4 -4 -4 -4 -4 -4 -3 -3 -3 -3 -3 -2 -2 -2 -1 -1 -1 -0 -0 -0
1 0 -0 -1 -1 -1 -2 -2 -2 -2 -2 -3 -3 -3 -3 -3 -3 -4 -4 -4 -4 -4 -4 -4 -4 -4 -4 -4 -5 -5 -5 -5 -5 -5 -5 -5 -5 -5 -5 -5 -5 -5 -5 -5 -5 -5 -5 -4 -4 -4 -4 -4 -4 -4 -4 -4 -4 -3 -3 -3 -3 -2 -2 -2 -1 -1 -1 -1 -0
0 -0 -1 -1 -1 -2 -2 -2 -2 -3 -3 -3 -3 -3 -4 -4 -4 -4 -4 -4 -4 -4 -4 -5 -5 -5 -5 -5 -5 -5 -5 -5 -5 -5 -5 -5 -5 -5 -5 -5 -5 -5 -5 -5 -5 -5 -5 -5 -5 -4 -4 -4 -4 -4 -4 -4 -4 -4 -3 -3 -3 -3 -2 -2 -2 -1 -1 -1 -1
-0 -1 -1 -2 -2 -2 -2 -3 -3 -3 -3 -3 -4 -4 -4 -4 -4 -4 -4 -4 -5 -5 -5 -5 -5 -5 -5 -5 -5 -5 -5 -5 -5 -6 -6 -6 -6 -5 -5 -5 -5 -5 -5 -5 -5 -5 -5 -5 -5 -5 -4 -4 -4 -4 -4 -4 -4 -4 -4 -3 -3 -3 -3 -3 -2 -2 -1 -1 -1
-1 -1 -2 -2 -2 -3 -3 -3 -3 -3 -4 -4 -4 -4 -4 -4 -4 -4 -5 -5 -5 -5 -5 -5 -5 -5 -5 -6 -6 -6 -6 -6 -6 -6 -6 -6 -6 -6 -5 -5 -5 -5 -5 -5 -5 -5 -5 -5 -5 -5 -4 -4 -4 -4 -4 -4 -4 -4 -4 -3 -3 -3 -3 -3 -3 -2 -2 -1 -1
-1 -2 -2 -3 -3 -3 -3 -3 -4 -4 -4 -4 -4 -5 -5 -5 -5 -5 -5 -5 -5 -5 -5 -5 -6 -6 -6 -6 -6 -6 -6 -6 -6 -6 -6 -6 -6 -6 -6 -6 -5 -5 -5 -5 -5 -5 -5 -5 -5 -5 -4 -4 -4 -4 -4 -4 -4 -4 -4 -4 -3 -3 -3 -3 -3 -3 -2 -2 -1
-2 -2 -3 -3 -3 -3 -4 -4 -4 -4 -5 -5 -5 -5 -5 -5 -5 -5 -5 -5 -6 -6 -6 -6 -6 -6 -6 -6 -6 -6 -6 -6 -6 -6 -6 -6 -6 -6 -6 -6 -5 -5 -5 -5 -5 -5 -5 -5 -5 -4 -4 -4 -4 -4 -4 -4 -4 -4 -4 -4 -3 -3 -3 -3 -3 -3 -3 -2 -2
-2 -3 -3 -4 -4 -4 -4 -4 -5 -5 -5 -5 -5 -5 -5 -5 -6 -6 -6 -6 -6 -6 -6 -6 -6 -6 -6 -6 -6 -6 -6 -6 -6 -6 -6 -6 -6 -6 -6 -6 -5 -5 -5 -5 -5 -5 -5 -5 -4 -4 -4 -4 -4 -4 -4 -4 -4 -4 -4 -4 -4 -3 -3 -3 -3 -3 -3 -3 -3
-3 -3 -4 -4 -4 -4 -5 -5 -5 -5 -5 -5 -5 -6 -6 -6 -6 -6 -6 -6 -6 -6 -6 -6 -6 -6 -6 -6 -6 -6 -6 -6 -6 -6 -6 -6 -6 -6 -6 -6 -5 -5 -5 -5 -5 -5 -5 -4 -4 -4 -4 -4 -4 -4 -4 -4 -4 -4 -4 -4 -4 -4 -3 -3 -3 -3 -3 -3 -3
-3 -4 -4 -5 -5 -5 -5 -5 -5 -6 -6 -6 -6 -6 -6 -6 -6 -6 -6 -6 -6 -6 -6 -6 -6 -6 -6 -6 -6 -6 -6 -6 -6 -6 -6 -6 -6 -6 -6 -6 -5 -5 -5 -5 -5 -5 -4 -4 -4 -4 -4 -4 -4 -4 -4 -4 -4 -4 -4 -4 -4 -4 -3 -3 -3 -3 -3 -3 -3
-4 -4 -5 -5 -5 -5 -5 -6 -6 -6 -6 -6 -6 -6 -6 -6 -6 -6 -6 -6 -6 -6 -6 -6 -6 -6 -6 -6 -6 -6 -6 -6 -6 -6 -6 -6 -6 -6 -6 -6 -5 -5 -5 -5 -4 -4 -4 -4 -4 -4 -4 -4 -4 -4 -4 -4 -4 -4 -4 -4 -3 -3 -3 -3 -3 -3 -3 -3 -3
-4 -5 -5 -5 -6 -6 -6 -6 -6 -6 -6 -6 -6 -6 -6 -6 -6 -6 -6 -6 -6 -6 -6 -6 -6 -6 -6 -6 -6 -6 -6 -6 -6 -6 -6 -6 -6 -6 -6 -5 -5 -5 -5 -4 -4 -4 -4 -4 -4 -3 -3 -3 -3 -3 -3 -3 -3 -3 -3 -3 -3 -3 -3 -3 -3 -3 -3 -3 -3
-4 -5 -5 -6 -6 -6 -6 -6 -6 -6 -6 -6 -6 -6 -6 -6 -6 -6 -6 -6 -6 -6 -6 -6 -6 -6 -6 -6 -6 -6 -6 -6 -6 -6 -6 -6 -6 -5 -5 -5 -5 -5 -5 -4 -4 -4 -4 -3 -3 -3 -3 -3 -3 -3 -3 -3 -3 -3 -3 -3 -3 -3 -3 -3 -3 -3 -3 -3 -3
-5 -5 -6 -6 -6 -6 -7 -7 -7 -7 -6 -6 -6 -6 -6 -6 -6 -6 -6 -6 -6 -6 -6 -6 -6 -6 -6 -6 -6 -6 -6 -6 -6 -6 -6 -6 -5 -5 -5 -5 -5 -5 -4 -4 -4 -3 -3 -3 -3 -3 -2 -2 -2 -2 -2 -2 -3 -3 -3 -3 -3 -3 -3 -3 -3 -3 -3 -3 -3
Height
785 785 785 784 784 784 784 783 783 783 783 782 782 781 781 780 779 779 779 778 777 777 776 775 775 774 774 774 773 773 772 772 771 771 771 770 769 769 769 768 767 767 766 765 765 764 764 763 763 762 761 760 760 759 759 759 759 758 758 757 757 757 756 756 755 755 754 754 754
785 784 784 784 783 783 783 782 782 782 781 781 780 780 779 779 778 777 777 776 776 775 774 774 773 772 772 771 771 770 770 769 769 769 768 768 767 767 766 766 765 765 764 764 763 762 762 761 760 760 759 758 758 757 757 756 756 756 755 754 754 754 754 753 753 753 752 752 752
784 784 783 783 782 782 782 781 781 780 780 779 779 779 778 777 777 776 775 774 774 773 772 771 771 770 770 769 769 768 768 767 767 766 766 765 765 765 764 764 763 763 762 762 761 760 759 759 758 758 757 756 756 755 754 754 754 754 753 752 752 752 751 751 751 750 750 750 750
783 783 782 782 781 781 781 780 780 779 779 778 778 777 776 776 775 774 773 773 772 771 770 770 769 768 768 767 767 766 766 765 765 764 764 763 763 762 762 761 761 760 760 759 759 758 758 757 756 755 754 754 754 753 752 752 752 751 750 750 750 749 749 748 748 749 748 748 748
782 782 781 781 781 780 780 779 779 778 777 777 776 775 774 774 773 772 771 771 770 769 769 768 767 767 766 765 764 764 764 763 763 762 761 761 760 760 759 759 759 758 757 757 756 756 755 755 754 753 752 752 751 750 750 750 749 749 748 748 747 747 746 746 746 746 746 745 745
781 781 780 780 779 779 779 778 777 776 776 775 774 773 773 772 771 770 770 769 768 768 767 766 765 764 764 763 763 762 761 761 760 760 759 758 758 757 757 756 756 755 755 754 754 753 753 752 751 750 750 749 748 748 747 748 747 746 745 745 744 744 744 744 743 743 743 743 742
780 780 779 779 778 778 777 776 776 775 774 773 772 772 771 770 769 769 768 767 766 765 765 764 763 763 762 761 760 759 759 758 758 757 757 756 755 754 754 753 753 752 752 751 751 751 750 750 749 748 747 747 746 745 745 745 744 744 743 742 742 742 742 741 741 741 741 740 740
779 779 778 778 777 776 775 775 774 773 772 772 771 770 769 769 768 767 766 765 764 764 763 762 761 760 760 759 758 757 757 756 755 754 754 753 753 752 751 750 750 749 749 749 748 748 747 747 746 745 744 744 743 742 742 742 741 741 740 739 739 739 739 738 738 738 738 737 737
778 777 777 776 775 774 774 773 772 771 771 770 769 769 768 767 766 765 764 764 763 762 761 760 759 759 758 757 756 755 754 754 753 752 751 751 750 749 749 748 747 746 746 745 745 745 744 744 743 742 741 741 740 739 739 739 739 738 737 736 736 735 735 735 735 735 734 734 734
776 775 775 774 774 773 772 771 771 770 769 769 768 767 766 765 764 764 763 762 761 760 759 758 757 756 755 755 754 753 752 751 750 749 749 748 747 747 746 745 745 744 743 743 742 742 741 740 739 739 738 738 737 736 736 736 735 735 734 734 733 732 732 732 732 732 732 731 731
774 774 773 773 772 771 770 770 769 769 768 767 766 765 765 764 763 762 761 760 759 758 757 756 755 754 754 753 752 751 750 749 748 747 747 746 745 744 744 743 742 741 741 740 740 739 739 738 736 735 734 734 734 733 732 732 732 731 731 730 730 729 729 728 729 729 729 728 728
773 772 772 771 770 770 769 769 768 767 766 766 765 764 763 762 761 760 759 758 757 756 755 754 754 753 751 750 749 749 748 747 746 745 744 743 742 741 741 740 739 739 738 737 737 737 736 735 734 733 731 731 730 730 729 729 728 728 727 727 727 726 725 725 725 725 725 725 725
771 771 770 770 769 769 768 767 766 766 765 764 763 762 761 760 759 758 757 756 755 754 753 752 751 750 749 748 747 746 745 744 744 743 742 740 739 739 738 737 736 735 735 734 734 733 733 732 731 730 729 728 727 727 726 725 725 724 724 723 723 723 722 721 722 722 722 722 722
770 770 769 769 768 768 767 766 765 764 763 762 761 760 759 758 757 756 755 754 753 752 751 750 749 748 747 746 745 744 743 742 741 740 739 738 737 736 735 734 733 732 732 731 730 730 729 729 728 727 726 725 724 723 723 722 722 721 720 720 719 719 718 718 718 719 719 719 719
769 769 769 768 767 766 765 764 763 762 761 760 759 758 757 756 755 754 753 752 751 750 749 748 747 746 745 744 743 742 741 740 739 738 736 735 734 733 732 731 730 729 729 728 727 727 726 725 724 724 723 722 721 720 720 719 719 718 717 716 716 715 715 715 715 715 715 715 715
769 768 767 766 765 764 764 763 762 760 759 758 757 756 755 754 753 752 751 750 749 748 747 746 744 743 742 741 740 739 738 737 736 735 734 732 731 730 729 728 727 726 725 725 724 723 723 722 721 721 720 719 718 717 717 716 715 715 714 713 713 712 712 711 712 712 712 712 712
767 767 766 765 764 763 762 761 760 759 758 756 755 754 753 752 751 750 749 748 747 746 744 743 742 741 740 739 738 737 736 734 733 732 731 729 728 727 726 725 724 723 723 722 721 720 719 718 718 717 717 716 715 714 714 713 712 712 711 710 709 709 709 708 708 708 708 709 708
766 765 764 763 762 761 760 759 758 757 756 755 754 753 752 750 749 748 747 746 745 744 742 741 739 739 737 736 735 734 733 732 730 729 728 727 725 724 723 722 721 720 719 719 717 716 715 714 714 714 713 713 712 711 711 710 709 709 708 707 706 706 705 705 705 705 705 705 704
764 763 762 761 760 759 759 757 756 755 754 753 752 751 750 749 748 746 745 744 743 742 740 739 737 736 735 734 732 731 730 729 728 726 724 723 722 721 720 719 718 717 716 715 714 713 712 711 710 710 709 709 709 708 707 707 706 705 704 704 703 702 702 701 701 701 701 701 701
763 762 761 760 759 758 757 756 755 754 753 752 750 749 748 747 746 744 743 741 740 739 738 736 735 733 732 730 729 728 727 726 724 723 721 720 719 718 716 715 714 714 713 712 710 709 709 708 707 707 706 706 705 704 704 703 702 702 701 700 699 699 698 698 697 697 697 697 697
762 760 759 759 758 757 755 754 754 752 751 750 749 748 746 745 744 742 741 739 738 737 735 734 732 731 729 728 726 725 723 722 721 720 718 717 715 714 713 712 711 710 709 708 707 706 705 704 704 703 703 702 701 701 700 699 699 698 697 696 695 695 694 694 694 693 693 693 693
760 759 758 757 756 755 754 753 752 751 749 748 747 746 744 743 741 740 739 737 736 734 733 731 730 728 727 725 724 722 720 719 718 716 715 714 712 711 710 709 708 707 705 704 703 703 702 701 701 700 699 699 698 697 696 696 695 694 693 693 692 691 690 690 690 689 689 689 689
759 758 757 756 755 754 753 751 750 749 748 746 745 744 742 741 739 738 736 734 733 732 730 729 727 726 724 723 721 719 717 715 714 712 711 710 709 708 707 706 705 704 702 701 700 699 699 698 697 697 696 695 694 693 693 692 691 691 690 689 688 687 687 686 686 685 685 685 685
757 756 755 754 753 752 751 750 749 747 746 745 743 742 740 739 737 735 734 732 730 729 728 726 724 723 721 719 718 716 714 713 710 709 707 706 705 705 704 703 702 700 699 698 697 696 696 695 694 693 693 692 691 689 689 688 687 687 686 685 684 684 683 683 682 682 681 681 681
756 754 754 753 751 750 749 748 747 746 744 743 741 740 738 736 735 733 731 729 728 726 725 723 721 720 718 716 715 713 712 710 708 706 704 703 702 701 701 700 699 697 696 695 694 694 693 693 692 691 689 689 688 686 685 684 684 683 682 681 681 680 679 679 678 678 678 677 677
754 753 752 751 750 749 748 747 745 744 743 741 739 738 736 734 733 731 729 727 725 723 722 720 719 717 715 714 712 710 708 707 705 704 702 700 699 698 698 697 696 694 693 692 691 690 690 689 689 688 687 686 685 684 682 681 680 679 679 678 677 677 676 675 674 674 674 674 674
753 752 750 749 748 747 746 745 744 742 741 739 738 736 734 732 730 729 726 724 723 721 719 718 716 714 713 711 709 707 705 704 703 701 700 698 697 695 694 694 693 691 689 688 688 687 686 685 685 684 684 683 682 681 679 678 677 676 676 675 674 673 672 671 670 670 670 670 670
751 750 749 748 747 745 744 743 742 740 739 737 735 734 732 730 728 726 724 722 720 719 717 715 713 712 710 708 706 704 703 702 700 699 697 696 694 693 692 690 689 688 686 685 684 683 682 681 681 680 680 679 679 677 676 675 674 673 673 672 671 670 669 668 667 667 667 667 667
750 749 748 746 745 744 743 741 740 739 737 735 733 731 729 728 726 724 722 720 718 716 714 713 711 709 708 706 704 702 701 699 698 696 695 693 691 690 689 687 685 684 682 681 680 679 678 677 676 676 676 675 675 674 672 671 670 669 669 668 667 667 666 665 664 664 664 664 664
749 748 746 745 744 742 741 739 738 737 735 733 731 729 727 725 723 721 719 718 716 714 713 711 709 707 705 703 702 700 698 697 695 694 692 690 689 687 685 684 682 680 678 677 676 675 674 673 672 671 671 671 671 670 669 667 666 665 664 664 663 663 663 662 662 661 661 660 660
748 746 745 744 742 741 739 738 736 734 733 731 729 727 725 723 721 719 718 716 714 712 710 709 707 705 703 701 699 698 696 694 693 691 689 688 686 684 682 680 678 676 674 673 671 670 669 668 667 667 666 666 666 665 664 663 662 661 660 659 659 659 659 659 658 658 657 657 657
746 745 744 742 741 739 737 736 734 732 731 729 727 725 723 721 719 717 715 714 712 710 708 706 704 702 700 698 697 695 694 692 690 688 687 685 683 680 678 676 674 672 670 669 667 666 664 663 663 662 661 661 661 660 659 658 657 656 655 654 654 654 654 655 654 654 654 654 653
745 744 742 741 739 737 735 734 732 730 729 727 725 723 721 719 717 715 713 711 710 708 706 704 702 700 698 696 694 692 691 689 687 685 683 681 679 677 675 672 670 668 666 664 663 661 660 659 658 657 656 656 655 655 654 653 652 651 650 649 649 649 650 650 650 650 650 650 650
743 742 740 739 737 735 734 732 730 728 726 724 722 720 719 717 715 713 711 709 708 706 704 702 700 698 696 694 693 690 688 686 684 682 680 678 676 674 671 669 666 664 662 660 659 657 655 654 653 652 651 650 650 649 649 648 647 646 645 644 644 644 644 645 645 645 646 647 647
742 740 739 737 735 734 732 730 728 726 724 722 720 718 716 715 713 711 709 707 705 704 701 699 698 696 694 692 690 688 686 683 681 679 676 674 672 670 667 664 662 659 658 656 654 653 651 649 648 647 646 645 645 644 643 642 641 640 639 638 638 639 639 640 640 640 641 642 643
740 739 738 735 734 732 730 728 726 724 722 720 718 716 714 712 711 709 707 706 704 701 699 697 695 693 691 689 687 685 683 681 678 675 673 671 669 667 664 660 658 655 653 651 650 648 646 645 643 642 641 640 639 638 637 636 635 634 633 633 633 633 633 634 635 635 636 637 638
739 738 736 734 732 730 729 727 725 723 720 718 716 714 713 711 709 707 705 704 702 699 697 694 693 691 689 687 685 682 680 678 676 673 670 668 666 663 660 657 654 651 649 647 645 644 642 640 638 637 636 635 634 633 632 631 629 628 628 627 627 627 628 629 630 630 631 632 633
737 736 735 733 731 729 727 725 723 721 719 717 714 713 711 709 707 705 704 702 700 698 695 693 690 689 686 684 682 679 677 675 673 670 667 664 662 660 657 654 650 647 644 642 641 639 637 635 634 632 631 630 629 628 627 625 624 623 622 622 622 622 622 623 624 625 626 627 628
735 734 733 731 729 728 726 724 722 720 718 715 713 711 709 708 706 704 702 701 699 697 694 691 689 686 684 682 680 677 674 671 669 667 664 662 659 657 654 651 647 644 640 638 637 635 633 631 629 627 626 625 624 623 621 620 618 617 617 616 616 617 617 618 619 620 620 621 623
734 733 731 730 728 726 724 722 720 718 716 714 712 710 708 706 704 702 700 699 697 695 693 690 687 684 682 680 678 674 671 668 666 664 661 659 656 654 651 648 644 640 637 634 632 631 629 627 625 623 621 620 618 617 616 614 613 611 611 611 611 612 612 613 614 615 616 617 618
732 731 730 728 727 725 723 721 719 716 714 713 711 709 707 705 703 700 699 697 695 693 691 688 685 682 680 678 676 673 669 665 663 660 658 655 653 650 648 645 641 637 633 631 628 627 625 623 621 619 617 616 614 612 610 608 607 605 605 605 606 607 608 609 610 611 612 613 614
Wind_Speed
6 6 7 7 8 9 10 11 12 13 14 14 15 16 17 17 18 19 19 20 20 20 20 21 21 21 22 22 22 22 22 22 22 23 23 23 23 24 24 24 24 24 24 24 24 24 24 24 24 25 25 25 24 24 24 23 22 21 21 21 21 21 21 22 22 22 22 22 21
7 8 8 9 10 11 12 13 14 14 15 15 16 17 18 18 19 20 20 21 21 21 22 22 22 23 23 23 23 23 23 24 24 24 24 25 25 25 25 25 25 25 25 25 25 25 26 26 26 26 26 26 26 26 25 25 24 23 22 22 22 22 22 22 22 23 23 23 22
9 9 10 11 12 12 13 14 14 15 15 16 17 18 19 19 20 20 21 21 22 22 23 23 24 24 24 25 25 25 25 26 26 26 26 26 26 26 26 26 26 26 26 26 26 26 26 27 27 28 28 28 28 27 27 26 25 25 24 24 23 23 22 23 23 23 23 23 22
10 10 11 11 12 12 13 14 15 16 16 17 18 19 20 20 21 21 22 23 23 23 24 24 25 25 25 26 27 27 27 28 28 28 28 28 28 28 28 28 27 27 27 26 26 26 26 27 28 28 29 29 29 29 29 28 27 27 26 26 24 24 24 24 24 24 24 24 23
10 10 11 11 12 13 13 14 15 16 17 18 19 20 21 21 22 22 23 23 24 24 24 25 25 26 26 27 27 28 29 29 29 29 29 30 30 30 30 29 29 28 28 27 27 26 26 26 27 29 29 30 30 30 30 29 29 29 28 28 26 26 25 25 25 25 25 25 24
10 10 11 12 12 13 14 15 16 17 18 19 20 21 22 22 23 23 23 23 24 25 25 25 25 26 26 27 27 28 28 29 29 29 30 30 30 30 30 30 30 29 29 28 28 27 27 26 27 29 29 30 30 31 31 30 30 30 30 29 28 28 27 26 26 26 25 25 26
10 11 12 12 14 15 15 16 17 18 19 20 21 22 22 23 23 23 24 24 24 24 24 25 25 25 26 26 27 27 28 29 29 29 29 30 30 30 30 30 30 29 29 29 28 28 28 27 28 29 30 30 31 31 31 31 31 31 31 30 30 29 28 27 27 26 26 27 27
11 12 13 14 15 16 17 18 19 20 21 21 22 22 23 23 23 24 24 24 24 24 24 24 25 25 25 26 27 27 28 28 29 29 29 29 29 29 29 29 29 29 29 29 29 29 29 29 29 30 30 31 30 31 31 31 31 31 31 31 31 30 30 29 29 28 28 28 28
12 13 15 16 17 17 18 19 20 21 22 22 23 23 23 23 24 24 24 24 24 25 25 25 26 26 26 27 27 28 28 28 29 29 29 29 28 28 28 28 29 29 29 29 29 29 29 30 30 31 31 31 31 31 32 32 32 32 33 32 32 32 32 31 30 30 29 29 28
14 15 16 17 18 19 20 21 22 22 23 23 24 24 24 24 24 24 25 25 26 26 26 26 27 27 27 27 28 28 28 29 29 28 28 28 28 28 28 28 28 29 29 29 29 29 29 30 30 32 32 33 33 34 34 34 34 34 34 33 33 33 33 32 32 31 30 30 29
16 17 18 19 20 20 21 22 23 24 24 24 24 25 25 25 26 26 26 27 27 27 28 28 28 28 28 28 29 29 29 29 29 29 29 29 29 29 29 29 29 29 30 30 29 29 29 29 30 31 32 33 34 35 36 36 36 36 36 35 35 34 34 34 33 32 31 31 30
17 18 19 20 21 22 23 24 24 25 25 25 25 26 26 27 27 27 28 28 28 28 29 29 29 29 29 29 30 30 30 30 30 30 30 30 31 31 30 30 30 30 31 31 30 29 29 29 29 30 31 32 33 33 34 35 36 36 36 36 36 35 35 35 34 33 32 31 31
18 20 20 21 22 23 24 25 25 25 25 26 26 27 28 28 28 28 29 29 29 30 30 30 30 30 31 31 31 31 31 31 31 31 31 31 31 31 31 31 31 31 31 31 31 30 29 29 30 30 31 32 32 33 33 34 35 35 36 36 36 36 36 35 35 35 33 32 32
19 21 22 23 24 24 25 26 26 26 26 27 28 28 29 29 30 29 29 30 30 31 32 32 32 32 31 32 32 32 32 32 32 31 31 32 32 32 32 32 32 31 31 31 31 30 30 30 30 31 31 32 33 33 34 34 35 35 35 36 36 36 36 36 36 35 34 33 32
21 22 23 24 25 25 26 26 26 26 27 28 29 29 30 30 30 30 31 31 32 32 33 32 32 33 33 33 33 33 33 32 32 32 32 32 32 32 32 32 32 32 32 31 31 31 31 31 31 31 31 32 33 33 34 34 35 35 36 36 36 37 37 36 36 35 34 33 33
22 23 24 25 26 26 27 27 27 27 28 29 30 30 31 31 31 31 32 32 33 33 33 33 33 34 34 34 34 33 33 33 32 32 32 32 32 33 33 33 33 33 32 32 32 32 32 32 32 32 32 32 33 33 34 34 34 35 36 36 37 37 37 37 36 35 35 34 33
23 24 25 26 27 27 28 28 28 29 29 30 31 31 31 31 32 32 32 32 33 33 33 34 34 34 34 35 34 34 33 33 32 32 32 32 33 33 33 33 34 34 33 33 33 33 34 34 33 33 33 33 33 33 34 34 34 34 35 36 36 37 37 37 36 36 35 35 34
24 25 26 27 28 28 29 29 29 30 30 30 31 31 31 31 32 32 33 33 33 33 34 35 35 35 35 35 35 34 33 33 33 33 33 33 33 34 34 34 34 34 34 34 34 34 35 35 35 34 34 34 34 34 34 34 34 34 35 35 36 36 37 37 37 36 35 35 35
25 26 27 28 28 29 29 29 30 30 30 30 31 31 32 32 33 33 34 34 34 34 34 35 35 36 36 36 35 35 34 33 33 34 34 34 34 34 34 35 35 34 34 34 34 35 35 35 35 35 35 35 34 34 34 34 34 34 34 35 35 36 36 37 37 37 37 36 36
26 27 28 28 29 29 29 29 29 29 30 30 31 31 32 33 33 33 34 34 35 34 34 35 35 36 36 36 36 36 35 34 34 34 34 35 35 35 35 35 35 35 35 35 35 35 35 35 35 35 35 35 35 35 35 35 35 35 35 34 35 35 36 36 37 37 38 38 38
27 28 28 29 29 29 29 29 29 29 30 30 31 32 32 33 34 34 34 35 35 35 35 35 35 36 36 36 36 36 35 35 34 34 34 35 35 35 35 35 34 34 35 35 35 35 35 35 35 35 35 35 35 35 35 35 35 35 35 35 35 35 35 36 36 37 38 38 39
27 28 28 29 29 29 29 29 29 30 30 31 31 32 33 33 34 34 35 35 35 35 35 35 35 36 36 36 36 36 36 36 35 35 35 35 35 35 35 34 34 34 35 35 35 35 35 35 35 35 34 34 35 35 35 35 35 35 35 36 36 36 36 36 36 36 37 38 39
28 28 28 28 29 29 29 29 30 30 30 31 31 32 33 33 34 35 35 35 35 35 35 35 35 35 35 35 36 36 36 37 37 37 36 35 35 35 35 34 33 34 34 34 34 33 33 33 33 33 32 32 33 34 34 35 35 35 35 36 37 37 37 37 36 36 36 38 38
28 28 28 29 29 29 29 30 30 30 30 31 31 32 33 34 34 35 35 36 35 35 35 35 35 35 36 36 36 36 36 36 36 37 37 36 35 34 34 33 32 32 32 32 31 30 30 29 29 29 29 29 29 30 32 32 33 33 34 35 36 37 37 38 38 37 36 36 36
28 29 29 29 29 29 29 29 29 30 30 31 31 32 33 33 34 35 35 35 36 36 36 36 36 36 35 35 35 35 34 34 35 35 35 35 35 34 32 32 31 30 30 30 30 30 30 29 28 28 28 28 27 27 28 29 29 30 32 33 34 34 35 36 37 37 37 37 37
28 29 29 29 29 29 29 29 29 30 30 31 32 32 33 33 34 34 35 35 36 36 36 35 35 35 34 34 34 34 33 33 33 33 33 33 33 33 33 32 31 31 31 31 31 31 31 31 31 30 30 29 29 29 28 28 28 28 29 30 31 31 32 33 35 36 36 36 37
28 28 29 29 29 29 29 29 29 30 31 31 32 32 33 33 34 34 35 35 36 36 35 34 34 33 33 32 32 32 32 32 32 32 33 32 33 33 33 32 32 32 32 32 33 33 33 33 33 33 33 32 31 31 31 31 30 30 30 29 30 30 31 31 33 34 34 34 35
28 28 28 28 29 29 29 30 30 30 31 31 32 32 33 33 34 34 34 35 35 35 34 33 33 31 30 31 31 31 32 32 32 32 32 33 33 34 34 33 33 33 33 33 34 34 35 35 35 35 35 34 33 33 33 32 31 32 31 30 29 30 30 30 31 32 33 33 34
28 27 27 28 28 29 30 30 30 30 31 31 32 32 33 33 34 34 34 34 34 33 32 32 32 31 30 31 32 33 33 33 33 33 32 32 33 34 34 34 34 34 35 35 36 36 36 36 36 36 36 36 34 33 31 31 31 32 32 31 30 30 30 31 31 31 31 31 31
27 27 27 27 28 29 30 30 31 31 31 31 32 32 33 33 33 33 33 33 33 32 32 32 31 32 32 33 33 33 33 33 33 32 32 33 33 34 34 34 35 35 36 37 37 37 38 38 37 37 37 37 36 35 33 32 32 32 32 32 32 31 31 30 30 31 31 31 31
26 26 27 27 28 29 30 31 31 31 31 31 32 32 32 32 33 33 32 32 32 32 32 32 32 32 33 33 32 32 32 33 32 32 32 33 34 35 36 36 36 37 38 38 38 39 39 39 39 38 38 38 37 35 34 34 33 33 33 34 33 33 33 32 31 31 31 32 32
26 26 27 28 29 30 31 31 31 31 31 32 32 32 32 32 32 32 32 31 31 32 32 32 32 32 33 33 32 32 32 33 33 34 34 34 35 36 37 37 38 38 39 39 39 39 39 39 39 39 39 39 38 37 36 36 35 34 34 35 36 36 35 33 32 32 32 32 32
26 27 27 28 29 30 31 31 32 32 32 32 31 31 31 31 32 32 32 31 30 30 31 31 31 32 32 32 33 33 33 34 34 35 35 36 36 36 37 38 38 38 38 38 39 39 39 39 39 39 39 39 38 37 37 36 35 34 34 35 37 37 37 36 36 35 33 33 31
26 27 28 29 30 31 31 32 32 31 31 31 31 31 31 31 31 31 31 31 30 30 30 30 30 31 31 31 32 33 34 34 35 35 36 36 36 36 37 37 37 37 38 39 39 40 40 40 40 41 41 40 39 37 36 36 35 35 35 36 37 37 37 37 37 37 37 36 34
27 27 28 30 31 31 31 31 31 31 31 31 31 31 31 31 30 30 30 30 30 30 30 30 30 31 31 31 31 32 33 34 35 36 36 36 36 37 37 38 39 40 40 40 41 41 41 41 41 42 42 41 39 37 35 35 35 36 36 36 37 38 38 38 38 38 38 38 37
27 27 28 30 31 31 31 31 31 30 30 30 31 31 31 31 30 30 30 30 30 30 31 31 31 31 31 31 32 32 33 34 35 36 37 37 37 37 37 38 39 41 41 41 41 41 41 42 42 42 42 40 37 35 34 33 33 34 35 36 37 38 39 39 38 38 38 38 38
27 27 28 29 30 30 30 30 30 30 30 30 30 30 30 30 30 30 29 29 29 30 31 31 31 31 32 33 33 34 34 35 36 36 37 38 37 37 37 38 40 41 42 42 41 41 41 41 42 42 41 39 36 33 32 31 31 31 33 35 36 37 38 38 38 38 38 38 38
27 27 28 28 29 29 29 29 29 29 29 30 30 30 30 30 29 29 29 28 28 30 31 32 32 32 33 34 34 35 36 36 36 36 37 37 37 37 37 37 39 41 42 42 42 41 41 41 42 42 41 39 36 33 31 30 29 30 31 32 33 35 36 35 35 36 37 38 39
28 28 27 27 28 28 29 29 29 29 29 30 30 30 30 29 29 29 29 28 29 30 31 32 33 33 34 34 34 35 36 37 36 36 36 37 37 37 37 37 38 40 42 42 42 42 42 42 42 43 42 41 38 34 31 29 29 30 30 31 31 32 32 33 33 33 34 37 39
28 27 27 27 27 27 28 28 29 29 29 29 29 29 29 29 29 29 29 29 29 30 31 32 33 34 34 34 34 34 36 37 37 37 37 37 38 38 38 37 38 40 42 42 42 42 42 42 42 42 42 40 37 34 31 29 29 29 30 30 29 29 29 30 30 30 31 34 37
28 27 27 27 26 27 27 28 29 29 29 28 28 28 28 29 29 29 29 29 30 31 31 31 33 34 34 34 33 33 34 36 37 38 38 38 38 38 37 37 38 39 41 41 42 41 40 40 40 40 39 37 35 32 29 27 27 27 29 29 29 27 26 26 27 27 28 30 32
Wind_Direction
336 343 346 348 346 344 342 341 340 340 339 338 337 336 334 332 330 329 328 327 325 324 322 321 321 321 321 320 320 318 316 313 311 309 306 304 302 300 299 297 295 294 292 291 289 288 285 283 281 279 276 275 274 273 272 272 273 274 275 277 280 284 288 291 294 296 298 298 298
339 340 340 340 339 337 336 336 335 335 335 334 333 332 330 329 327 326 326 325 324 323 322 321 321 321 321 320 319 318 317 316 314 312 310 307 305 303 301 299 297 295 293 291 289 288 285 283 281 278 276 274 272 271 271 271 271 271 272 274 277 280 283 286 288 291 294 295 295
334 335 335 335 336 336 336 334 333 332 332 331 330 329 328 327 326 325 324 324 323 322 321 321 320 319 319 318 318 317 317 316 315 314 312 310 308 306 304 302 300 297 295 293 290 288 286 284 282 279 276 274 272 271 270 270 270 270 270 272 274 276 278 280 283 287 289 290 290
332 333 335 335 335 335 334 332 331 330 329 329 328 327 326 326 325 324 323 322 322 321 320 319 318 317 316 315 315 314 314 314 313 312 311 309 308 307 305 304 302 299 297 295 293 290 288 285 283 279 277 275 273 271 270 270 270 270 270 271 272 273 274 276 279 282 284 285 285
332 334 335 335 334 334 332 331 330 329 328 328 327 326 325 325 324 323 322 321 319 318 317 315 314 313 313 312 312 311 311 310 309 308 307 306 305 304 303 302 301 300 298 296 294 291 289 286 282 279 277 275 272 271 271 271 270 269 269 270 270 270 271 273 275 278 280 281 281
334 335 335 335 334 333 331 331 329 329 327 327 326 325 324 324 323 321 319 317 316 315 314 313 312 311 311 310 309 308 308 307 306 305 304 303 302 301 301 300 299 297 296 295 293 291 288 285 281 278 276 274 272 271 270 270 269 268 268 268 268 268 269 270 272 274 275 276 277
334 334 334 334 333 332 331 330 329 328 327 326 325 324 323 322 321 319 317 316 314 314 313 312 311 310 309 308 307 306 305 304 303 302 301 300 299 299 298 297 296 295 293 292 290 289 286 283 279 277 275 273 271 270 269 269 267 267 266 266 266 267 267 267 269 270 271 272 273
334 334 333 333 333 332 331 330 329 328 326 325 324 323 322 321 319 317 316 315 314 313 312 311 310 309 308 307 306 305 304 303 303 302 300 299 298 297 296 295 294 292 291 289 288 286 284 281 278 275 273 271 269 268 267 267 266 266 265 265 266 266 266 266 267 267 267 268 269
334 334 333 333 333 332 331 330 328 327 325 324 323 322 321 319 318 317 315 314 314 313 312 311 310 309 308 307 306 305 304 303 303 302 300 299 297 296 294 293 291 290 289 288 286 284 282 280 276 273 271 269 267 266 266 266 266 265 264 264 265 265 265 265 265 265 265 265 265
335 334 334 334 333 332 331 329 328 326 325 324 322 321 320 319 317 316 315 315 314 313 312 311 310 310 308 307 306 305 305 304 302 301 299 298 296 294 292 291 289 288 286 285 284 282 280 277 274 272 271 269 267 267 267 266 266 265 264 263 264 264 264 264 264 263 263 262 262
336 335 335 334 333 332 330 328 327 326 324 323 322 320 319 318 317 316 316 315 314 313 312 311 311 310 308 307 306 305 304 303 301 299 298 296 294 292 290 289 287 285 284 283 281 280 277 274 272 270 269 268 267 266 266 265 265 264 263 263 263 263 263 262 262 261 260 260 260
336 335 334 333 332 331 329 327 326 325 323 322 320 319 318 318 317 316 316 315 313 312 311 310 310 309 307 306 305 304 302 301 299 298 296 294 292 291 289 287 286 284 283 281 280 278 275 272 270 268 266 265 265 263 262 262 261 262 262 262 261 261 261 261 260 259 258 257 257
335 334 333 332 330 329 328 326 325 324 322 320 319 319 318 317 317 316 315 314 312 311 310 309 308 307 306 304 303 302 301 299 298 296 294 292 291 289 288 286 285 283 282 281 279 277 275 272 270 268 266 264 263 261 259 258 258 259 259 259 259 259 258 258 258 258 257 255 254
333 332 331 330 329 328 327 325 324 323 321 320 319 318 318 317 316 315 314 312 311 310 309 308 307 305 304 303 302 300 299 297 296 294 292 291 289 288 286 285 284 283 282 280 279 277 275 273 271 269 267 265 263 261 260 258 257 256 256 256 256 256 256 257 256 256 255 254 253
331 330 329 328 328 327 326 325 323 322 320 319 318 318 317 316 315 314 312 311 309 309 308 307 305 304 303 301 300 299 298 296 295 293 291 290 288 287 286 285 284 282 281 280 279 277 275 273 272 270 268 267 265 264 262 260 257 256 255 254 254 255 255 255 255 254 253 252 252
329 329 328 328 327 326 325 324 323 321 320 318 317 316 315 314 313 312 311 310 309 308 307 305 304 303 302 300 299 298 297 295 294 292 291 289 288 287 285 284 283 282 281 280 279 278 276 274 273 271 270 268 267 266 264 262 259 257 255 254 254 253 254 253 253 253 252 252 251
328 328 328 327 326 325 324 323 322 320 319 317 316 315 314 313 312 311 309 308 307 306 305 304 303 302 301 300 298 297 296 295 293 291 290 288 287 286 285 284 283 282 281 280 279 278 276 275 273 272 270 269 268 267 265 264 262 259 257 256 254 253 253 252 252 252 251 251 249
328 327 327 326 326 324 323 322 320 319 317 316 315 313 312 311 310 309 308 307 306 305 304 303 302 301 300 298 298 297 295 294 292 291 289 287 286 285 284 284 283 282 281 280 279 277 276 275 274 272 271 270 268 267 266 265 263 261 259 257 255 253 252 252 251 250 250 250 249
327 327 326 326 324 323 322 320 319 317 316 314 313 312 311 310 309 308 307 306 305 304 303 302 301 300 299 298 297 296 294 293 291 290 288 287 286 285 284 283 283 282 281 280 278 277 276 275 274 273 272 270 269 267 266 265 263 262 260 258 256 255 253 251 250 249 249 249 248
326 326 325 324 323 321 320 318 317 315 314 313 312 311 310 309 308 307 306 305 304 303 302 300 300 299 298 297 296 295 294 293 291 290 288 287 286 285 284 283 283 282 281 280 278 277 276 275 274 273 272 271 269 268 266 265 263 262 260 259 257 255 253 251 249 248 248 248 247
325 324 323 322 321 319 318 316 315 314 312 311 310 310 309 308 307 306 305 304 303 302 301 300 299 298 297 297 296 295 294 293 291 289 288 287 286 285 284 284 283 283 281 280 279 277 276 275 274 273 272 271 270 268 266 265 263 262 260 259 257 255 254 252 250 248 247 246 246
323 322 321 320 319 317 316 315 314 313 312 311 310 309 308 307 306 305 304 304 303 302 300 299 298 297 297 296 295 294 294 293 291 289 288 286 286 285 284 284 283 282 281 280 279 278 276 275 274 273 271 270 269 267 266 264 263 262 261 259 257 256 255 253 251 249 247 246 245
322 321 320 318 317 316 315 314 313 312 311 310 309 309 308 307 306 305 304 303 302 301 300 299 298 297 296 295 294 294 293 292 291 289 288 286 285 285 285 285 283 282 281 280 279 277 276 275 274 272 270 269 267 266 264 263 262 260 259 258 257 256 256 254 252 250 248 246 244
320 319 318 317 316 315 314 313 312 312 311 310 309 308 307 306 306 305 304 303 302 301 300 299 298 297 297 295 294 293 292 291 290 289 289 288 287 286 286 285 284 282 280 279 278 276 275 274 273 272 270 268 266 264 263 261 259 258 257 257 256 255 255 254 252 251 249 246 243
319 318 317 316 315 314 313 312 312 311 310 309 308 308 307 306 305 305 304 303 302 301 300 300 299 298 297 296 295 294 292 290 289 289 289 289 288 288 287 286 284 282 280 279 278 276 275 273 272 272 271 270 268 267 265 262 259 258 256 256 255 254 253 252 251 250 248 246 243
318 317 316 315 314 313 312 311 311 310 309 309 308 308 307 306 305 304 303 302 302 301 301 300 300 299 298 297 296 294 292 291 290 290 290 290 289 289 288 286 285 283 282 280 279 277 275 274 272 271 271 271 270 270 268 267 264 261 259 257 255 253 252 251 250 249 247 245 243
317 316 315 314 313 312 311 311 311 310 310 309 308 307 306 306 305 304 303 302 302 302 302 301 301 300 299 298 296 295 293 293 292 291 291 290 290 289 288 287 285 283 281 280 278 277 275 274 272 270 269 268 268 268 267 267 266 265 263 261 259 256 253 251 250 248 246 244 242
316 315 314 313 312 311 311 311 311 311 310 309 308 307 306 306 305 304 303 303 303 303 303 302 302 301 300 298 297 295 295 294 294 293 292 290 289 289 288 286 284 283 281 280 278 277 275 274 272 270 268 266 265 265 264 264 264 264 263 262 261 259 256 253 251 249 247 245 243
314 314 313 312 311 311 312 312 311 311 310 309 308 307 307 306 305 305 304 304 304 304 303 303 303 302 300 298 297 297 296 295 294 293 292 290 289 288 287 286 284 283 281 280 279 277 276 274 272 270 268 266 264 263 262 261 260 260 259 259 258 258 257 255 253 250 248 246 244
313 313 312 312 312 312 312 312 311 311 310 309 308 308 307 306 306 306 305 305 305 304 304 303 302 301 299 298 298 297 296 295 294 293 292 290 289 288 287 286 284 283 282 281 279 278 276 275 273 271 269 267 264 262 260 259 258 257 256 255 255 254 254 254 253 251 248 245 243
313 313 313 313 312 312 312 312 311 311 310 309 309 308 307 307 306 306 306 306 305 305 304 303 302 300 299 298 298 297 296 295 294 293 292 290 289 288 288 286 284 283 282 281 280 279 277 275 274 272 270 267 265 262 259 258 256 255 254 253 252 252 251 252 252 251 248 245 242
313 313 314 314 313 313 312 312 312 311 310 310 309 308 308 307 306 306 306 307 306 306 305 304 303 302 301 300 299 298 297 296 294 293 292 290 289 288 287 286 285 283 282 282 281 279 278 277 275 273 271 268 265 262 259 257 255 253 252 252 251 250 249 248 249 250 249 247 242
314 315 315 314 314 313 313 313 312 311 311 310 309 308 308 308 308 308 308 308 308 307 306 304 303 302 301 300 299 298 297 296 294 293 292 291 289 288 287 286 285 284 283 283 282 281 280 278 276 274 272 270 266 263 259 257 254 252 251 250 250 248 246 245 245 246 247 248 246
316 316 316 315 314 313 313 313 312 312 311 310 309 309 309 309 309 309 309 309 309 307 305 303 301 300 300 298 298 297 296 295 294 292 291 291 290 288 286 285 285 285 284 284 283 282 281 279 278 276 274 272 268 264 260 257 254 251 249 248 248 247 245 243 243 243 244 245 247
317 317 317 315 314 314 313 313 313 312 311 310 310 310 310 310 310 309 309 309 309 307 305 303 301 300 299 298 296 296 295 293 293 292 292 290 289 288 286 285 285 286 286 285 284 283 283 281 279 278 276 273 270 266 261 256 253 250 248 246 246 245 245 243 241 241 241 241 243
318 318 317 315 314 314 313 313 313 312 311 310 310 310 311 311 311 310 310 310 309 308 305 303 302 301 300 299 298 296 295 294 293 293 292 291 290 288 287 286 286 287 288 287 285 285 284 283 281 279 277 275 271 267 261 256 252 249 247 245 243 242 242 242 240 239 238 238 238
319 318 317 315 314 313 313 312 312 311 310 310 310 310 311 311 311 311 311 311 310 308 306 305 303 302 301 301 299 297 296 295 294 293 292 291 290 289 288 287 288 289 289 289 288 286 285 284 283 281 279 276 272 267 261 256 251 248 245 243 242 241 240 240 239 237 236 235 235
319 318 316 314 313 312 312 311 311 310 309 309 309 310 311 311 311 311 311 311 309 308 306 305 303 302 301 300 300 298 296 295 294 293 292 291 291 290 289 288 289 290 291 291 290 289 287 285 284 282 280 277 273 268 262 256 251 247 244 242 242 240 238 237 236 235 234 233 233
319 318 316 314 312 311 311 310 309 309 308 309 309 310 311 312 311 311 310 310 308 307 305 304 302 301 301 300 300 298 297 296 295 294 292 292 291 291 290 289 289 290 291 292 292 291 289 287 286 284 282 279 275 270 264 256 250 246 243 241 240 238 236 234 232 232 231 231 233
320 319 317 314 312 311 310 309 308 308 308 308 309 310 311 311 310 310 309 308 307 306 304 303 302 301 301 301 300 299 298 297 297 295 294 293 293 294 294 291 290 291 292 292 292 292 291 289 287 286 284 281 277 272 264 256 249 243 240 238 237 236 234 232 230 229 228 228 230
320 319 317 315 313 311 310 309 308 308 309 309 309 309 310 311 309 309 309 308 307 306 304 303 302 302 302 301 300 299 297 297 297 297 296 296 295 296 296 293 292 292 293 293 294 293 292 291 290 288 287 285 282 277 269 257 248 241 236 234 233 231 230 229 227 225 225 225 226